Powrót do katalogu

BLOCK DM-SL R/B

AktywnyGTO
NORAD 26762·ROCKET BODY· XX

Wystrzelony May 8, 2001 z Sea Launch Platform

Loading…

TLE

Starzejące sięSource: Space-Track

Epoka: Sep 14, 2026, 13:12 UTC

1 26762U 01018B   26257.55061745 -.00000066  00000-0  53360-2 0  9990
2 26762   1.3140  26.2297 7052727 180.5501 296.8073  2.23851886207447

Śledź BLOCK DM-SL R/B w czasie rzeczywistym z AllMySat

Download on the App Store